{"data":{"norad_id":57902,"intl_designator":"2023-146M","name":"STARLINK-30462","alt_names":[],"object_type":"PAYLOAD","status":"ACTIVE","operator":null,"country":"US","launch_date":"2023-09-20","launch_site_code":"AFETR","launch_vehicle":null,"mission":null,"orbit_class":"UNKNOWN","rcs_meters":null,"size_class":null,"mass_kg":null,"dimensions":null,"purposes":["comms"],"wikipedia_slug":null,"has_3d_model":false,"image_url":null,"decayed_at":null,"tle_current":{"epoch":"2026-09-20T19:14:10.627296Z","epoch_age_seconds":108193,"freshness":"FRESH","line1":"1 57902U 23146M   26263.80151189 -.00000053  00000+0  76160-5 0  9994","line2":"2 57902  43.0041 292.5215 0001288 276.3414  83.7291 15.27573981166853","mean_motion":15.27573981,"eccentricity":0.0001288,"inclination_deg":43.0041,"raan_deg":292.5215,"arg_perigee_deg":276.3414,"mean_anomaly_deg":83.7291,"bstar":7.616e-6,"rev_number":16685,"period_min":94.267120146766,"perigee_km":482.18339605961,"apogee_km":483.9508422407,"semimajor_km":6861.2041191502,"source":"CELESTRAK","updated_at":"2026-09-21T09:00:33.722687Z"}}}